Unicorn-2M

operational
NORAD ID: 58726 Int'l Des: 2023-185 Owner: ALBAD Country: D
LEOCIRCULARRETROGRADE

About Unicorn-2M

Description loading...

Live Position

Loading 3D Globe...

Upcoming Passes

Altitude History

Altitude vs Time

uPlot chart will show altitude changes over time

Two-Line Element Set

1 58726U 23185Q 26047.73080617 .00634840 00000-0 31271-2 0 9999
2 58726 97.5498 139.9015 0006986 286.3482 73.7016 15.80469206117792
Epoch: Feb 16, 2026 • Age: 368 hours

Current Status

Altitude 247.8 km
Velocity 7.75 km/s
Sub-Earth Point -25.46°S, 17.48°W
Launch Date Dec 1, 2023
Age 2.2 years
Type other

Technical Details

Classification Payload
Mass 0.75 kg
Dry Mass 0.75 kg
Total Mass 0.75 kg
Length 0.15 m
Diameter 0.05 m
Span 0.45 m
Shape Box+2 pan
Manufacturer ALBA
Bus Type PocketQube 3P
Phase Status In Orbit
Owner/State ALBAD/D

Large Constellations

Loading constellations...